Погода в Бомнаке

Погода в Бомнаке : погода сейчас, прогноз погоды и архив. Всё, что Вы хотите узнать о погоде в Бомнаке!

Поиск расширенной информации на нашем сайте:

Другие новости

Новости СМИ2

Главная страница сайта

Новости сайта

03.07.2017

Напоминаем, что на нашем специализированном сайте Метеоцентр.Азия вы можете получить высокодетализированные автоматические прогнозы погоды по пунктам России, СНГ и мира в авиационном формате (включающие направление и скорость ветра, видимость, явления погоды, количество и форму облачности, нижнюю и верхнюю границу облачности).


Погода в Бомнаке - сегодня

Время (UTC), дата Ветер
(°,м/с) 
Видим.   Явления Облачность Т
(°С)
Тd
(°С)
f(%) Тe
(°С)
Pmin
(гПа)
dP
(гПа)
Po
(мм)
O2
(г/м3)
Тmin Tmax R s Состояние
почвы
21 19.04.18 300 (СЗ) 20000 м    ясно 
-2.7 -9.5 59 -4  1012.3  0.6  725  296           
00 20.04.18 310 (СЗ) 20000 м    3/0 верхняя 
[Ci fib]
+2.9 -9.3 40 +2  1011.3  -0.1  725  290  -3.6        замёрзшая 
03 20.04.18 200 (Ю) 20000 м    6/0 верхняя 
[Ci fib]
+5.6 -7.4 39 +4  1009.8  -1  724  287           
06 20.04.18 210 (ЮЗ) 20000 м    10/3 600 м средняя, верхняя 
[Cu hum|Ac trans|Ci fib]
+7.7 -8.7 30 +6               
12 20.04.18 310 (СЗ) 4{13}  20000 м    3/0 верхняя 
[Ci fib]
+2.8 -10.4 37 +1  1011.8  2.5  725  290    +9.2       
15 20.04.18 310 (СЗ) 20000 м    ясно 
+0.9 -10.6 42 -1  1013  0.9  726  293           
18 20.04.18 320 (СЗ) 20000 м    ясно 
-0.9 -9.3 53 -4  1014.3  0.9  727  295           
21 20.04.18 330 (СЗ) 20000 м    ясно 
-0.9 -8.2 58 -5  1016  1.7  728  295           
00 21.04.18 350 (С) 5{12}  20000 м    ясно 
+3.5 -9.4 38 +1  1017.3  730  291  -1.2        замёрзшая 
03 21.04.18 300 (СЗ) 20000 м    8/8 600 м кучево-дожд. 
[Cb cap]
+5.7 -12.1 26 +4  1018.3  1.2  731  289           
06 21.04.18 310 (СЗ) 5{10}  20000 м    8/6 600 м кучево-дожд., верхняя 
[Cb cap|Ci ing]
+7.4 -12.9 22 +6  1018.3  0.4  731  288           
09 21.04.18 310 (СЗ) 6{11}  20000 м    3/3 600 м 
[Cu hum]
+5.6 -14.2 22 +3  1019.7  732  290           
12 21.04.18 310 (СЗ) 20000 м    ясно 
+1.3 -13.3 33 -1  1023.2  2.7  734  295    +7.5       
15 21.04.18 310 (СЗ) 20000 м    ясно 
-1.3 -13.3 40 -3  1024.5  0.8  734  298           
18 21.04.18 330 (СЗ) 20000 м    ясно 
-2.3 -13.5 42 -5  1025.7  0.9  735  300           
21 21.04.18 320 (СЗ) 20000 м    ясно 
-3.7 -13.5 47 -5  1027.8  1.7  736  302           
00 22.04.18 320 (СЗ) 20000 м    ясно 
+2.5 -14 28 +2  1027.7  1.1  737  295  -4        замёрзшая 
03 22.04.18 320 (СЗ) 20000 м    3/1 600 м верхняя 
[Cu hum|Ci fib]
+6 -13.1 24 +4  1026.5  -0.7  736  291           
06 22.04.18 210 (ЮЗ) 20000 м    3/1 600 м верхняя 
[Cu hum|Ci fib]
+7.1 -9.9 29 +6  1024.2  -2.1  735  289           
09 22.04.18 230 (ЮЗ) 20000 м    3/1 600 м верхняя 
[Cu hum|Ci fib]
+7.1 -10.7 27 +7  1023.1  -1  734  289           
12 22.04.18 тихо ()   20000 м    ясно 
+3 -10.9 35 +3  1023.4  -0.3  734  293    +8.2       
15 22.04.18 150 (ЮВ) 20000 м    ясно 
+0.6 -10.4 43 +1  1024.1  0.3  734  296           
18 22.04.18 060 (СВ) 20000 м    ясно 
-0.1 -10 47 +1  1023.5  -0.7  734  297           
21 22.04.18 060 (СВ) 20000 м    3/0 верхняя 
[Ci fib]
-2.2 -8.9 60 -2  1023.9  734  299           
00 23.04.18 090 (В) 20000 м    ясно 
+4.6 -11.1 31 +3  1021.9  -0.8  733  291  -3.3        влажная 
Время (UTC), дата Ветер
(°,м/с) 
Видим.   Явления Облачность Т
(°С)
Тd
(°С)
f(%) Тe
(°С)
Pmin
(гПа)
dP
(гПа)
Po
(мм)
O2
(г/м3)
Тmin Tmax R s Состояние
почвы

Для получения пояснительной информации подведите курсор к названию столбца.

ПОГОДА в Бомнаке - архив

Всё, что Вы хотите узнать о погоде в Бомнаке - удобно и подробно!

Выберите нужную дату (начиная с 1 января 2015* года) и нажмите кнопку "Найти".
Будут отображены архивные сводки погоды по пункту Бомнак, начиная с указанной даты.


Отображать данные в формате CSV (для использования в таблицах Excel)


Внимание! Наш архив погоды предназначен исключительно для личного некоммерческого использования в познавательных целях. Если Вам необходимы официальные справки о состоянии погоды (для производственных, юридических, коммерческих и т.п. целей), обращайтесь в органы Росгидромета.

*Примечание: данная дата относится к архиву по метеостанциям СССР (Россия, СНГ, Балтия).
Архив по метеостанциям Зарубежной Европы и Азии (кроме Китая) хранится 10 дней, по другим регионам земного шара (Китай, Африка, Америка, Австралия, Океания) - 1 день.

Бомнак - район местоположения метеостанции


Название, широта, долгота, высота метеостанции:
Бомнак 54.7°ш. 128.9°д. 357 м над ур. моря [Российская Федерация]

Дополнительная информация

В oтличие oт бoльшинства пoгoдных сайтoв мы публикуем пoдрoбную метеoинфoрмацию в детальнoм прoфессиoнальнoм фoрмате.

Характеристики температуры и влажнoсти вoздуха измеряются на высoте 2 м в тени вдали oт зданий и деревьев.
Скoрoсть ветра измеряется на высoте 10 м (на урoвне рoста челoвека скoрoсть ветра ниже в 1.5-2 раза). Если метеoстанция нахoдится в гoрoде или в лесу, тo скoрoсть ветра занижена на 2-4 м/с пo сравнению с oткрытым местoм. Скoрoсть ветра над акватoриями крупных рек и oзёр, а также на вершинах хoлмoв на 2-5 м/с выше, чем в oбычных услoвиях.
Атмoсфернoе давление в разных тoчках местнoсти мoжет значительнo oтличаться oт давления на метеoстанции, в зависимoсти oт услoвий рельефа (при пoдъёме на 10 м давление пoнижается примернo на 1 мм рт.ст.).